Powrót do katalogu

GEESAT 1-05

AktywnyNaukaVLEO
NORAD 52789·PAYLOAD·🇨🇳 China

Wystrzelony Jun 2, 2022 z Xichang Satellite Launch Center

Loading…

Następne Przeloty (najbliższe 24 godziny)

TLE

ŚwieżeSource: Space-Track

Epoka: Sep 14, 2026, 14:59 UTC

1 52789U 22058E   26257.62472018  .00003218  00000-0  26750-3 0  9997
2 52789  49.9854 114.7324 0002883 122.4800 237.6425 15.01281414233646

Śledź GEESAT 1-05 w czasie rzeczywistym z AllMySat

Download on the App Store